Weather History for Midland, TX

Change the Weather History Date:

Wednesday, November 14, 2012

  Actual Average Record
Temperature  
Mean Temperature 46 °F 53 °F  
Max Temperature 63 °F 67 °F 85 °F (1933)
Min Temperature 28 °F 40 °F 13 °F (1976)
Degree Days  
Heating Degree Days 19 12  
Month to date heating degree days 90 129  
Since 1 July heating degree days 224 238  
Moisture  
Dew Point 25 °F    
Average Humidity 43    
Maximum Humidity 58    
Minimum Humidity 27    
Precipitation  
Precipitation 0.00 in 0.03 in 0.73 in (2004)
Month to date precipitation T 0.35  
Year to date precipitation 12.72 13.66  
Snow  
Snow 0.00 in - - ()
Month to date snowfall 0.0  
Since 1 July snowfall 0.0  
Since 1 September snowfall 0.0  
Snow Depth 0.00 in    
Sea Level Pressure  
Sea Level Pressure 30.26 in    
Wind  
Wind Speed 4 mph (SSE)    
Max Wind Speed 12 mph    
Max Gust Speed 15 mph    
Visibility 10 miles    
Events      
T = Trace of Precipitation, MM = Missing Value Source: NWS Daily Summary

Daily Weather History Graph

Daily Weather History Graph

Search for Another Location

Airport:

Trip Planner

Search our weather history database for the weather conditions in past years. The results will help you decide how hot, cold, wet, or windy it might be!

Date:

Astronomy

Nov. 14, 2012 Rise Set
Actual Time 7:17 AM CST 5:49 PM CST
Civil Twilight 6:51 AM CST 6:15 PM CST
Nautical Twilight 6:21 AM CST 6:44 PM CST
Astronomical Twilight 5:52 AM CST 7:13 PM CST
Moon 8:05 AM CST (11/14) 6:43 PM CST (11/14)
Length of Visible Light 11h 24m
Length of Day
10h 32m
New Moon, 1% of the Moon is Illuminated
Nov 14
New Moon
Nov 20
First Quarter
Nov 28
Full
Dec 6
Last Quarter
Dec 13
New

Hourly Weather History & Observations

Time (CST) Temp. Windchill Dew Point Humidity Pressure Visibility Wind Dir Wind Speed Gust Speed Precip Events Conditions
12:53 AM 37.0 °F - 18.0 °F 46% 30.27 in 10.0 mi Calm Calm - N/A   Clear
1:53 AM 35.1 °F - 18.0 °F 50% 30.28 in 10.0 mi Calm Calm - N/A   Clear
2:53 AM 32.0 °F - 18.0 °F 56% 30.28 in 10.0 mi Calm Calm - N/A   Clear
3:53 AM 32.0 °F - 18.0 °F 56% 30.27 in 10.0 mi Calm Calm - N/A   Clear
4:53 AM 30.0 °F - 18.0 °F 61% 30.28 in 10.0 mi Calm Calm - N/A   Clear
5:53 AM 32.0 °F 28.7 °F 18.0 °F 56% 30.30 in 10.0 mi SE 3.5 mph - N/A   Clear
6:53 AM 33.1 °F 28.7 °F 19.0 °F 56% 30.32 in 10.0 mi SE 4.6 mph - N/A   Clear
7:53 AM 34.0 °F 31.0 °F 19.0 °F 54% 30.34 in 10.0 mi SE 3.5 mph - N/A   Clear
8:53 AM 39.0 °F - 21.9 °F 50% 30.36 in 10.0 mi Calm Calm - N/A   Clear
9:53 AM 44.1 °F - 25.0 °F 47% 30.35 in 10.0 mi Calm Calm - N/A   Clear
10:53 AM 50.0 °F - 27.0 °F 41% 30.34 in 10.0 mi Calm Calm - N/A   Clear
11:53 AM 53.1 °F - 28.0 °F 38% 30.31 in 10.0 mi SE 4.6 mph - N/A   Clear
12:53 PM 57.0 °F - 27.0 °F 32% 30.27 in 10.0 mi SE 8.1 mph - N/A   Clear
1:53 PM 60.1 °F - 28.0 °F 30% 30.23 in 10.0 mi SSE 8.1 mph - N/A   Clear
2:53 PM 62.1 °F - 28.9 °F 29% 30.22 in 10.0 mi South 4.6 mph - N/A   Clear
3:53 PM 62.1 °F - 28.0 °F 28% 30.20 in 10.0 mi SE 6.9 mph - N/A   Clear
4:53 PM 61.0 °F - 28.0 °F 29% 30.20 in 10.0 mi SSE 6.9 mph - N/A   Clear
5:53 PM 57.0 °F - 28.9 °F 34% 30.19 in 10.0 mi SE 6.9 mph - N/A   Clear
6:53 PM 52.0 °F - 28.0 °F 40% 30.20 in 10.0 mi SSE 9.2 mph - N/A   Clear
7:53 PM 50.0 °F - 28.0 °F 43% 30.20 in 10.0 mi SSE 6.9 mph - N/A   Clear
8:53 PM 48.0 °F - 27.0 °F 44% 30.20 in 10.0 mi SSE 6.9 mph - N/A   Clear
9:53 PM 46.9 °F - 28.0 °F 48% 30.19 in 10.0 mi South 9.2 mph - N/A   Clear
10:53 PM 46.9 °F - 28.9 °F 50% 30.18 in 10.0 mi South 9.2 mph - N/A   Clear
11:53 PM 41.0 °F 37.1 °F 28.9 °F 62% 30.18 in 10.0 mi South 5.8 mph - N/A   Clear